Regional Weather Roundup
Issued by NWS Cleveland, OH

Home | Current Version | Previous Version | Text Only | Print | Product List | Glossary On
Versions: 1 2 3 4 5 6 7 8 9 10 11 12 13 14 15 16 17 18 19 20 21 22 23 24 25 26 27 28 29 30 31 32 33 34 35 36 37 38 39 40 41 42 43 44 45 46 47 48 49 50
000
ASUS41 KCLE 050710
RWRCLE
OHIO REGIONAL WEATHER ROUNDUP
NATIONAL WEATHER SERVICE CLEVELAND, OH
200 AM EST THU MAR 05 2015

NOTE: "FAIR" INDICATES FEW OR NO CLOUDS BELOW 12,000 FEET WITH NO
SIGNIFICANT WEATHER AND/OR OBSTRUCTIONS TO VISIBILITY.

OHZ001>008-015>018-024>027-034-035-043-044-050800-
   NORTHWEST OHIO

CITY           SKY/WX    TMP DP  RH WIND       PRES   REMARKS
DEFIANCE       CLOUDY    17   2  51 N13G20    30.28S WCI   4
FINDLAY        CLOUDY    18   2  49 N16       30.26R WCI   3
TOLEDO EXPRESS CLOUDY    15   1  53 N8        30.27F WCI   4
TOLEDO EXEC    CLOUDY    17  -1  45 N13G18    30.28S WCI   4
LIMA           CLOUDY    19   6  57 N10       30.24S WCI   7
$$

OHZ009>014-019>023-028>033-038-089-050800-
   NORTHEAST OHIO

CITY           SKY/WX    TMP DP  RH WIND       PRES   REMARKS
CLE-HOPKINS    CLOUDY    18   5  57 N20G26    30.27R WCI   2
CLE-LAKEFRONT  CLOUDY    19   6  57 NW21G26   30.25R WCI   3
CUY CO. ARPT   NOT AVBL
LORAIN-ELYRIA  CLOUDY    17   2  51 N14       30.25R WCI   3
ASHTABULA      CLOUDY    16   7  67 N16G23    30.21R WCI   1
AKRON-CANTON   CLOUDY    20   9  62 N20       30.17R WCI   4
WOOSTER        CLOUDY    18   6  59 N16G24    30.20R WCI   3
MANSFIELD      CLOUDY    16   5  62 NW20      30.20R WCI  -1
YOUNGSTOWN     FLURRIES  20   9  62 NW18      30.15R WCI   5
$$

OHZ042-051>053-060>062-070>072-077>081-050800-
  SOUTHWEST OHIO

CITY           SKY/WX    TMP DP  RH WIND       PRES   REMARKS
CINC-COVINGTON CLOUDY    22  12  65 N16       30.22R WCI   8
CINC-LUNKEN    CLOUDY    22  13  68 N10       30.26R WCI  11
HAMILTON       CLOUDY    22  10  60 N12G22    30.26R WCI  10
DAYTON         CLOUDY    20   7  57 N17       30.23R WCI   5
WRIGHT-PAT AFB CLOUDY    20   6  56 N14G22    30.24R WCI   6
DAYTON GENERAL CLOUDY    20   7  57 N13G22    30.21R WCI   7
WILMINGTON     CLOUDY    19   7  59 N13       30.20R WCI   6
$$

OHZ036-037-039>041-045>050-054>059-063>069-073>076-082>088-050800-
  CENTRAL AND SOUTHEAST OHIO

CITY           SKY/WX    TMP DP  RH WIND       PRES   REMARKS
COLUMBUS       CLOUDY    20   9  62 N17       30.21R WCI   5
OSU AIRPORT    CLOUDY    19   5  54 NW15      30.22R WCI   5
BOLTON FIELD   CLOUDY   N/A N/A N/A NW18G24   30.22R
RICKENBACK AFB CLOUDY    21  11  64 N18       30.21R WCI   6
NEWARK         CLOUDY    23   9  55 NW13G21   30.20R WCI  11
MARION         CLOUDY    18   4  54 N15       30.24R WCI   4
LANCASTER      CLOUDY    22  11  62 N15       30.21R WCI   9
ZANESVILLE     CLOUDY    24  14  65 NW13      30.17R WCI  12
NEW PHILLY     CLOUDY    24   8  50 NW14G23   30.18R WCI  12
$$


USA.gov is the U.S. government's official web portal to all federal, state and local government web resources and services.